VE6EN Weather Reports


Display with metric or nautical units.
time (UTC)temp
F
wind
direction
speed
MPH
gust
MPH
rain 1hr
in
rain 24hr
in
rain mn
in
humidity
%
barometer
mb
20260504050001 50 200 1.0 5.0 0.00 0.00 0.00 50 1013.6
20260504045004 50 170 1.0 6.0 0.00 0.00 0.00 49 1013.5
20260504044005 50 65 1.0 5.0 0.00 0.00 0.00 48 1013.4
20260504043000 51 76 1.0 3.0 0.00 0.00 0.00 46 1013.3
20260504042001 51 86 1.0 7.0 0.00 0.00 0.00 45 1013.1
20260504041004 51 31 2.0 6.0 0.00 0.00 0.00 43 1013.0
20260504040004 51 59 2.0 9.0 0.00 0.00 0.00 42 1012.8
20260504035002 52 71 2.0 7.0 0.00 0.00 0.00 42 1012.5
20260504034004 52 63 3.0 7.0 0.00 0.00 0.00 41 1012.2
20260504033005 53 53 3.0 7.0 0.00 0.00 0.00 41 1011.9
20260504032000 53 59 3.0 9.0 0.00 0.00 0.00 40 1011.3
20260504031002 54 33 4.0 11.0 0.00 0.00 0.00 39 1011.1
20260504025959 54 61 5.0 10.0 0.00 0.00 0.00 39 1010.8
20260504025000 55 76 4.0 12.0 0.00 0.00 0.00 39 1010.6
20260504024000 55 80 3.0 9.0 0.00 0.00 0.00 39 1010.4
20260504022959 55 66 3.0 7.0 0.00 0.00 0.00 39 1010.3
20260504021959 56 55 4.0 8.0 0.00 0.00 0.00 38 1010.2
20260504021000 57 73 4.0 9.0 0.00 0.00 0.00 37 1010.2
20260504020002 57 70 4.0 10.0 0.00 0.00 0.00 35 1010.0
20260504014959 58 71 5.0 12.0 0.00 0.00 0.00 35 1009.8
20260504014004 60 74 5.0 11.0 0.00 0.00 0.00 35 1009.4
20260504013005 60 53 4.0 9.0 0.00 0.00 0.00 35 1009.3
20260504012000 61 78 4.0 12.0 0.00 0.00 0.00 34 1009.0
20260504011004 62 67 4.0 11.0 0.00 0.00 0.00 33 1008.8
20260504010000 63 88 3.0 8.0 0.00 0.00 0.00 33 1008.7
20260504004959 64 84 3.0 8.0 0.00 0.00 0.00 33 1008.5
20260504004000 65 181 2.0 7.0 0.00 0.00 0.00 34 1008.5
20260504003000 65 107 2.0 7.0 0.00 0.00 0.00 33 1008.5
20260504001959 65 68 2.0 8.0 0.00 0.00 0.00 33 1008.5
20260504000959 65 211 3.0 9.0 0.00 0.00 0.00 33 1008.3
20260504000000 66 136 3.0 14.0 0.00 0.00 0.00 31 1008.2
20260503234959 66 213 3.0 15.0 0.00 0.00 0.00 31 1008.1
20260503234000 66 98 4.0 9.0 0.00 0.00 0.00 32 1008.2
20260503232959 66 103 3.0 11.0 0.00 0.00 0.00 31 1008.0
20260503232004 67 74 4.0 8.0 0.00 0.00 0.00 30 1008.0
20260503230959 67 92 3.0 9.0 0.00 0.00 0.00 30 1008.0
20260503230006 68 65 3.0 10.0 0.00 0.00 0.00 29 1008.0
20260503225002 68 89 4.0 11.0 0.00 0.00 0.00 29 1008.0
20260503223959 70 101 5.0 13.0 0.00 0.00 0.00 27 1007.9
20260503223004 72 93 3.0 11.0 0.00 0.00 0.00 26 1007.8
20260503221959 72 67 1.0 7.0 0.00 0.00 0.00 26 1007.8
20260503220958 72 66 1.0 4.0 0.00 0.00 0.00 25 1007.6
20260503220002 71 74 2.0 7.0 0.00 0.00 0.00 24 1007.8
20260503215004 72 59 2.0 7.0 0.00 0.00 0.00 23 1007.8
20260503214004 71 93 2.0 14.0 0.00 0.00 0.00 25 1008.0
20260503213004 71 63 1.0 6.0 0.00 0.00 0.00 25 1008.0
20260503212000 71 65 1.0 6.0 0.00 0.00 0.00 25 1007.9
20260503211004 71 82 1.0 7.0 0.00 0.00 0.00 26 1008.0
20260503210000 70 135 2.0 7.0 0.00 0.00 0.00 26 1008.1
20260503205004 70 60 2.0 7.0 0.00 0.00 0.00 24 1008.3
20260503204002 70 92 2.0 9.0 0.00 0.00 0.00 25 1008.2
20260503203000 70 59 1.0 8.0 0.00 0.00 0.00 26 1008.4
20260503201959 70 229 1.0 4.0 0.00 0.00 0.00 22 1008.4
20260503201003 70 217 2.0 6.0 0.00 0.00 0.00 22 1008.6
20260503200004 70 263 1.0 7.0 0.00 0.00 0.00 22 1008.8
20260503194959 70 222 1.0 5.0 0.00 0.00 0.00 21 1008.7
20260503193959 70 287 1.0 4.0 0.00 0.00 0.00 21 1009.0
20260503192959 70 296 1.0 5.0 0.00 0.00 0.00 22 1009.0
20260503191959 69 124 0.0 3.0 0.00 0.00 0.00 25 1009.2
20260503190959 68 65 1.0 7.0 0.00 0.00 0.00 24 1009.3
20260503185959 69 269 1.0 5.0 0.00 0.00 0.00 23 1009.5
20260503184959 68 328 2.0 6.0 0.00 0.00 0.00 27 1009.8
20260503183959 69 254 0.0 3.0 0.00 0.00 0.00 21 1009.9
20260503182959 69 255 1.0 3.0 0.00 0.00 0.00 25 1010.1
20260503181959 68 275 2.0 5.0 0.00 0.00 0.00 23 1009.9
20260503180959 68 292 1.0 5.0 0.00 0.00 0.00 22 1010.2
20260503180000 67 275 2.0 6.0 0.00 0.00 0.00 24 1010.2
20260503174959 66 313 1.0 5.0 0.00 0.00 0.00 25 1010.3
20260503174004 66 214 1.0 6.0 0.00 0.00 0.00 25 1010.6
20260503172959 66 261 1.0 7.0 0.00 0.00 0.00 27 1010.8
20260503171959 65 254 1.0 6.0 0.00 0.00 0.00 27 1010.9
20260503170959 65 282 2.0 8.0 0.00 0.00 0.00 28 1011.0
20260503150958 53 298 2.0 6.0 0.00 0.00 0.00 42 1011.5
20260503130959 45 301 0.0 0.0 0.00 0.00 0.00 47 1011.6
20260503080958 50 290 0.0 3.0 0.00 0.00 0.00 38 1012.1
20260503071958 50 284 1.0 4.0 0.00 0.00 0.00 36 1012.3
20260503070958 49 285 0.0 1.0 0.00 0.00 0.00 36 1012.2